www.pogodaiklimat.ru

Погода и климат >> Архив погоды >> Филиппины >> Тагбиларан


ПОГОДА в Тагбиларане

  • Прогноз погоды в Тагбиларане
  • Монитор погоды в Тагбиларане

АРХИВ ПОГОДЫ в Тагбиларане

Время (UTC), дата Ветер
(напр.,м/с)
 
Видим.   Явления Облачность Т
(С)
Тd
(С)
f
(%)
Тe
(С)
Тes
(С)
Комфортность P
(гПа)
Po
(гПа)
Тmin
(С)
Tmax
(С)
R
(мм)
R24
(мм)
S
(см)
15 12.06 штиль 0 14 км 6/1 500 м
[Cu med, cong Ac trans Ci fib]
+27.6 +25.2 87 +40 +40 очень
душно
1010.4 1007.5
18 12.06 штиль 0 14 км 4/1 500 м
[Cu med, cong Ac cuf Ci fib]
+27.2 +25.4 90 +40 +40 очень
душно
1008.8 1005.9
21 12.06 С 1 14 км 4/3 500 м
[Cu med, cong Ac cuf Ci fib]
+26.3 +24.4 89 +37 +37 очень
душно
1008.0 1005.1
00 13.06 Ю 2 15 км мгла {туман} 6/4 500 м
[Cu med, cong Ac cuf Ci fib]
+29.2 +26.0 83 +44 +48 опасность
перегрева
1009.8 1006.9 +25.8
03 13.06 Ю 3 15 км осадки на расстоянии {туман} 8/4 480 м
[Cb cap Ac As Ci sp]
+30.4 +26.5 80 +47 +54 опасность
перегрева
1009.2 1006.3 +26.5
06 13.06 Ю 4 15 км мгла {туман} 4/4 480 м
[Cb cap Ac cuf Ci fib]
+31.8 +26.7 74 +49 +55 опасность
перегрева
1007.5 1004.6
09 13.06 В 1 15 км мгла {туман} 5/3 500 м
[Cu med, cong Ac cuf Ci fib]
+30.2 +26.9 83 +47 +48 опасность
перегрева
1007.5 1004.6
12 13.06 штиль 0 14 км {туман} 4/1 500 м
[Cu med, cong Ci fib]
+27.2 +25.6 91 +40 +40 очень
душно
1008.9 1006.0 +32.7
15 13.06 СВ 1 14 км 4/1 500 м
[Cu med, cong Ac trans Ci fib]
+26.5 +25.3 93 +38 +38 очень
душно
1010.0 1007.1
18 13.06 В 1 14 км 8/1 500 м
[Cu med, cong Ac cuf Cs]
+25.0 +24.8 99 +35 +35 очень
душно
1008.1 1005.2
21 13.06 Ю 1 14 км зарница {гроза} 8/4 480 м
[Cb cap Ac cuf Cs]
+25.0 +23.6 92 +34 +34 очень
душно
1007.5 1004.6 0.2
00 14.06 ЮЗ 2 15 км мгла {гроза} 5/1 500 м
[Cu med, cong Ac cuf Ci fib]
+29.2 +26.4 85 +45 +50 опасность
перегрева
1010.1 1007.2 +25.0 0.2
03 14.06 Ю 2 15 км мгла {туман} 4/3 500 м
[Cu med, cong Ac cuf Ci fib]
+31.0 +26.9 79 +48 +62 опасность
перегрева
1009.1 1006.2
06 14.06 Ю 3 15 км мгла {туман} 5/3 500 м
[Cu med, cong Ac cuf Ci fib]
+32.0 +27.2 76 +50 +58 опасность
перегрева
1006.6 1003.7
09 14.06 Ю 1 15 км мгла {туман} 8/3 500 м
[Cu med, cong Ac cuf Ci sp]
+30.4 +27.1 83 +48 +49 опасность
перегрева
1007.5 1004.6
12 14.06 ЮЗ 1 14 км {туман} 4/3 500 м
[Cu med, cong Ac cuf Ci fib]
+27.0 +25.0 89 +39 +39 очень
душно
1009.3 1006.4 +32.8
15 14.06 Ю 1 14 км 4/3 500 м
[Cu med, cong Ac trans Ci fib]
+26.0 +24.7 93 +37 +37 очень
душно
1009.7 1006.8
18 14.06 ЮЗ 1 14 км 6/3 500 м
[Cu med, cong Ac trans Cs]
+25.5 +24.2 93 +35 +35 очень
душно
1008.3 1005.4
21 14.06 штиль 0 14 км 5/3 500 м
[Cu med, cong Ac trans Cs]
+25.0 +23.6 92 +34 +34 очень
душно
1008.1 1005.2
00 15.06 Ю 2 15 км мгла {туман} 5/1 500 м
[Cu med, cong Cs]
+29.6 +24.2 73 +41 +47 опасность
перегрева
1009.9 1007.0 +25.0
03 15.06 Ю 2 15 км мгла {туман} 3/1 500 м
[Cu med, cong Cc]
+31.4 +25.4 71 +46 +63 опасность
перегрева
1009.5 1006.6
06 15.06 Ю 3 15 км мгла {туман} 5/1 500 м
[Cu med, cong Cc]
+31.4 +24.5 67 +44 +54 опасность
перегрева
1007.3 1004.4
09 15.06 ЮВ 1 15 км мгла {туман} 4/1 500 м
[Cu med, cong Ac cuf Cs]
+31.3 +25.4 71 +46 +47 опасность
перегрева
1006.5 1003.6
12 15.06 В 1 14 км {туман} 4/1 500 м
[Cu med, cong Ac As Ci fib]
+28.0 +25.4 86 +41 +41 опасность
перегрева
1009.1 1006.2 +32.4
15 15.06 В 1 14 км 5/1 500 м
[Cu med, cong Ac trans Ci fib]
+27.0 +25.0 89 +39 +39 очень
душно
1010.4 1007.5
18 15.06 СЗ 1 14 км 4/1 500 м
[Cu med, cong Ac As Ci fib]
+26.0 +24.7 93 +37 +37 очень
душно
1007.9 1005.2
21 15.06 СЗ 1 14 км 5/1 500 м
[Cu med, cong Ac cuf Cs]
+25.5 +24.2 93 +35 +35 очень
душно
1007.6 1004.7
00 16.06 Ю 4 15 км осадки на расстоянии {туман} 8/5 480 м
[Cb cap Ac As Ci sp]
+29.5 +25.7 80 +44 +45 опасность
перегрева
1010.0 1007.1 +25.4
03 16.06 Ю 2 15 км мгла {туман} 8/4 480 м
[Cb cap Ac As Ci sp]
+30.8 +25.9 75 +46 +54 опасность
перегрева
1010.5 1007.6
06 16.06 Ю 2 15 км мгла {туман} 4/4 480 м
[Cb cap Ac cuf Ci fib]
+32.3 +26.2 70 +48 +57 опасность
перегрева
1008.7 1005.8
09 16.06 Ю 2 15 км мгла {туман} 5/3 480 м
[Cb cap Ac cuf Ci sp]
+32.0 +25.5 69 +47 +48 опасность
перегрева
1008.5 1005.6
12 16.06 ЮЗ 2 14 км зарница {туман} 6/3 480 м
[Cb cap Ac cuf Ci fib]
+29.2 +26.1 83 +44 +44 опасность
перегрева
1008.3 1007.4 +33.2
15 16.06 Ю 1 14 км 6/4 480 м
[Cb cap Ac cuf Ci fib]
+27.0 +25.7 93 +40 +40 очень
душно
1011.3 1008.4
18 16.06 СВ 1 14 км гроза без осадков 10/4 480 м
[Cb cap Ac As]
+26.5 +25.2 93 +38 +38 очень
душно
1009.6 1006.7
21 16.06 ЮВ 1 14 км {гроза, ливн. осадки} 6/3 500 м
[Cu med, cong Ac As Cs]
+24.5 +23.1 92 +33 +33 очень
душно
1009.8 1006.9 3
00 17.06 Ю 1 15 км мгла 4/3 480 м
[Cb cap Ac cuf Ci fib]
+27.8 +25.2 86 +40 +46 очень
душно
1009.3 1008.4 +25.2 3
03 17.06 В 3 15 км гроза без осадков {ливн. осадки, туман} 8/4 480 м
[Cb cap Ac As Ci sp]
+29.2 +27.0 88 +46 +53 опасность
перегрева
1009.6 1008.7 0.6
06 17.06 Ю 2 15 км мгла {гроза} 5/4 480 м
[Cb cap Ac cuf Ci fib]
+31.9 +26.6 74 +49 +57 опасность
перегрева
1007.1 1006.2 0.6
09 17.06 В 1 15 км мгла {туман} 6/3 500 м
[Cu med, cong Ac cuf Ci fib]
+30.0 +26.6 82 +46 +47 опасность
перегрева
1007.1 1006.2
12 17.06 СЗ 1 14 км {туман} 3/1 500 м
[Cu med, cong Ac As Ci fib]
+27.0 +25.7 93 +40 +40 очень
душно
1011.1 1008.2 +32.8
15 17.06 штиль 0 14 км 3/1 500 м
[Cu med, cong Ac cuf Ci fib]
+25.5 +24.2 93 +35 +35 очень
душно
1011.6 1008.7
18 17.06 штиль 0 14 км 3/1 500 м
[Cu med, cong Ci fib]
+25.0 +23.6 92 +34 +34 очень
душно
1010.4 1007.5
21 17.06 С 1 14 км 3/1 500 м
[Cu med, cong Ci fib]
+24.0 +23.3 96 +32 +32 очень
душно
1010.4 1007.5
00 18.06 Ю 2 15 км мгла {туман} 3/3 500 м
[Cu med, cong Ci fib]
+28.0 +26.0 89 +42 +47 опасность
перегрева
1011.0 1008.1 +24.0 0.6
03 18.06 В 2 15 км мгла {туман} 3/3 500 м
[Cu med, cong]
+31.4 +26.5 75 +48 +62 опасность
перегрева
1010.6 1007.7
06 18.06 ЮВ 2 13 км слаб. ливневой дождь {туман} 9/3 480 м
[Cb cap Ac cuf Cs]
+30.8 +25.9 75 +46 +52 опасность
перегрева
1009.2 1006.3 0.7
09 18.06 С 2 15 км мгла {туман} 3/1 500 м
[Cu med, cong Ac cast Ci]
+31.0 +24.1 67 +43 +44 опасность
перегрева
1007.8 1004.9
12 18.06 З 1 14 км {туман} 4/1 500 м
[Cu med, cong Ac cuf Ci fib]
+27.7 +24.8 84 +39 +39 очень
душно
1009.9 1007.0 +31.8
15 18.06 СЗ 1 14 км 5/1 500 м
[Cu med, cong Ac cuf Ci fib]
+26.2 +24.3 89 +36 +36 очень
душно
1010.3 1007.4
18 18.06 СЗ 1 14 км 4/3 500 м
[Cu med, cong Ac cuf Ci fib]
+25.3 +23.8 91 +34 +34 очень
душно
1009.0 1006.1
21 18.06 СЗ 1 14 км 3/3 500 м
[Cu med, cong Ac cuf Ci fib]
+24.6 +23.4 93 +33 +33 очень
душно
1009.0 1006.1
00 19.06 В 2 15 км мгла 4/1 500 м
[Cu med, cong Ac cuf Ci fib]
+29.8 +26.4 82 +46 +51 опасность
перегрева
1009.5 1006.6 +24.6 0.7
03 19.06 В 2 15 км мгла {туман} 4/1 500 м
[Cu med, cong Cc]
+31.2 +26.3 75 +47 +64 опасность
перегрева
1008.9 1006.0
06 19.06 Ю 2 15 км мгла {туман} 6/3 480 м
[Cb cap Ac cuf Cc]
+32.0 +25.6 69 +47 +55 опасность
перегрева
1008.0 1005.1
09 19.06 В 1 15 км мгла {туман} 4/1 500 м
[Cu med, cong Ac cuf]
+31.8 +24.4 65 +44 +45 опасность
перегрева
1007.2 1004.3

 

Местоположение метеостанции Тагбиларан (Филиппины): широта 9.60 долгота 123.85 высота над уровнем моря 8 м.

В архиве по умолчанию представлена погода в Тагбиларане за последнюю неделю. Архивные данные за месяц целиком и за предыдущие месяцы, начиная с января 2011 года, Вы можете получить, выбрав интересующий диапазон дат из раскрывающегося списка и нажав кнопку "Ввод!".


*Определитесь, кто Вы:
робот инопланетянин человек

Внимание! Время в таблицах - всемирное. Для получения местного времени необходимо прибавить поправку, которая равна 8 ч.

Смотрите также архив погоды в соседних городах и на ближайших метеорологических станциях:

Погода в Думагете (Филиппины) (69 км)
Погода в Мактане (Филиппины) (79 км)
Погода в Маасине (Филиппины) (123 км)
Погода в Дипологе (Филиппины) (124 км)
Погода в Кагаян-де-Оро (Филиппины) (138 км)
Погода в Серигао Сити (Филиппины) (182 км)
Погода в Бутуане (Филиппины) (197 км)
Погода в Малайбалае (Филиппины) (210 км)
Погода в Таклобане (Филиппины) (222 км)
Погода в Рохасе (Филиппины) (251 км)

Пояснения к столбцам:

Ветер - указаны скорость ветра в м/с - средняя за 10 мин, порывы в срок и между сроками (в фигурных скобках) и направление, откуда дует ветер: С - северный, СВ - северо-восточный, В - восточный, ЮВ - юго-восточный, Ю - южный, ЮЗ - юго-западный, З - западный, СЗ - северо-западный.
Видимость - горизонтальная дальность видимости в метрах или километрах. При видимости от 1 до 10 км при отсутствии осадков обычно наблюдается дымка, при ухудшении видимости до 1 км и менее - туман. В сухую погоду видимость может ухудшаться дымом, пылью или мглою.
Явления - указаны атмосферные явления, наблюдавшиеся в срок или в последний час перед сроком; фигурными скобками обозначены явления, наблюдавшиеся между сроками (за 1-3 часа до срока); квадратными скобками обозначены град или гололедные отложения с указанием их диаметра в мм.
Облачность - указаны через наклонную черту общая и нижняя облачность в баллах и высота нижней границы облаков в метрах; квадратными скобками обозначены формы облаков: Ci - перистые, Cs - перисто-слоистые, Cc - перисто-кучевые, Ac - высококучевые, As - высокослоистые, Sc - слоисто-кучевые, Ns - слоисто-дождевые, Cu - кучевые, Cb - кучево-дождевые. Подробнее классификацию облаков см. в Атласе облаков (PDF).
T - Температура воздуха - температура, измеренная на высоте 2 м над землей.
Td - Температура точки росы - температура, при понижении до которой содержащийся в воздухе водяной пар достигнет насыщения.
f - Относительная влажность воздуха - влажноcть воздуха, измеренная на высоте 2 м над землей.
Te - Эффективная температура - температура, которую ощущает одетый по сезону человек в тени. Характеристика душности погоды. При расчете учитывается влияние влажности воздуха и скорости ветра на теплоощущения человека.
Tes - Эффективная температура на солнце - температура, которую ощущает человек, с поправкой на солнечный нагрев. Характеристика знойности погоды. Зависит от высоты солнца над горизонтом, облачности и скорости ветра. Ночью, в пасмурную погоду, а также при ветре 12 м/с и более поправка равна нулю.
P - Атмосферное давление - приведенное к уровню моря атмосферное давление.
Po - Атмосферное давление - измеренное на уровне метеостанции атмосферное давление.
Tmin - Минимальная температура - минимум температуры воздуха на высоте 2 м над землей.
Tmax - Максимальная температура - максимум температуры воздуха на высоте 2 м над землей.
R - Количество осадков - Количество выпавших осадков за период времени, мм. При наведении курсора мыши на число - период времени, за который выпало указанное количество осадков.
R24 - Количество осадков - Количество выпавших осадков за 24 часа, мм.
S - Снежный покров - Высота снежного покрова, см. При наведении курсора мыши на число - состояние снежного покрова и степень покрытия местности в баллах.